Content
SEND FEEDBACK

Daily
Averages
Monthly
Summary
United States of America

UMATAC, GUAM


Home > North America > United States > Guam
Elevation: 58 meters     Latitude: 13 17N     Longitude: 144 40E

WEATHER
 
SELECT A DAY
Number of Records: 357,336;   Date Range: 1/1/95 - 12/26/14
 
SHARE

PRINT THIS DATA

[ ← Previous Day ]
WEATHER ALMANAC - 20 FEBRUARY, 2013
[ Next Day → ]
[ °F ]   °C
Weather ElementAverageHighLow
Temperature26.2 °C29.1 °C (1:55 pm)24.7 °C (4:55 am)
Dewpoint22.7 °C24 °C (10:09 am)21 °C (3:45 am)
Humidity81.5 %89 % (12:03 am)69 % (1:55 pm)
Barometer1009.1 hPa1010.8 hPa (9:20 am)1007.8 hPa (2:55 pm)
Wind Speed27 km/h35.2 km/h (9:25 am)
Wind Gust46.3 km/h (8:44 am)
Weather ElementAverage
Visibility16.1 km
Wind DirectionENE (69 °)

Weather ElementTotal
Precipitation---
Cooling Degree Days8.6 (Base 18.3)
Growing Degree Days16.9 (Base 10)
Averaged from 104 records on 20 February, 2013
WEATHER CONDITIONS BREAKOUT
WIND DIRECTION BREAKOUT
WEATHER BY HOUR - 20 FEBRUARY, 2013
[ °F ]   °C
Local TimeTemperatureDewpointHumidityBarometerVisibilityWind DirectionWind SpeedGust SpeedPrecipitationEventsConditions
12:03 AM25 °C23 °C89 %1010.2 hPa16.1 kmENE (60°)24.1 km/h35.2 km/hMostly Cloudy
12:27 AM25 °C23 °C89 %1010.2 hPa16.1 kmENE (70°)33.3 km/hMostly Cloudy
12:40 AM25 °C23 °C89 %1010.2 hPa16.1 kmEast (80°)25.9 km/hMostly Cloudy
12:55 AM25.3 °C22.9 °C86 %1009.8 hPa16.1 kmEast (80°)29.6 km/hMostly Cloudy
1:01 AM25 °C23 °C89 %1009.8 hPa16.1 kmEast (80°)27.8 km/hMostly Cloudy
1:03 AM25 °C23 °C89 %1009.8 hPa16.1 kmEast (80°)24.1 km/hScattered Clouds
1:10 AM25 °C23 °C89 %1009.8 hPa16.1 kmEast (80°)22.2 km/hMostly Cloudy
1:19 AM25 °C23 °C89 %1009.5 hPa16.1 kmEast (80°)24.1 km/hMostly Cloudy
1:21 AM25 °C23 °C89 %1009.5 hPa16.1 kmEast (80°)24.1 km/hMostly Cloudy
1:43 AM25 °C22 °C83 %1009.5 hPa16.1 kmEast (80°)27.8 km/hScattered Clouds
1:55 AM25.3 °C22.9 °C86 %1009.5 hPa16.1 kmENE (70°)25.9 km/hMostly Cloudy
1:58 AM25 °C23 °C89 %1009.5 hPa16.1 kmENE (70°)25.9 km/hScattered Clouds
1:59 AM25 °C23 °C89 %1009.5 hPa16.1 kmEast (80°)25.9 km/hMostly Cloudy
2:04 AM25 °C23 °C89 %1009.5 hPa16.1 kmENE (70°)31.5 km/hMostly Cloudy
2:33 AM25 °C22 °C83 %1008.8 hPa16.1 kmENE (70°)31.5 km/hMostly Cloudy
2:55 AM25.2 °C22.3 °C84 %1008.8 hPa16.1 kmENE (70°)24.1 km/hMostly Cloudy
3:14 AM25 °C22 °C83 %1008.5 hPa16.1 kmENE (70°)27.8 km/hScattered Clouds
3:17 AM25 °C22 °C83 %1008.5 hPa16.1 kmENE (70°)25.9 km/hMostly Cloudy
3:19 AM25 °C22 °C83 %1008.5 hPa16.1 kmEast (80°)24.1 km/hScattered Clouds
3:20 AM25 °C22 °C83 %1008.5 hPa16.1 kmEast (80°)24.1 km/hMostly Cloudy
3:34 AM25 °C22 °C83 %1008.5 hPa16.1 kmEast (80°)25.9 km/hScattered Clouds
3:45 AM25 °C21 °C78 %1008.5 hPa16.1 kmEast (80°)27.8 km/hMostly Cloudy
3:47 AM25 °C21 °C78 %1008.5 hPa16.1 kmENE (70°)25.9 km/hScattered Clouds
3:55 AM25.1 °C21.4 °C80 %1008.5 hPa16.1 kmEast (80°)27.8 km/hPartly Cloudy
4:22 AM25 °C22 °C83 %1008.5 hPa16.1 kmENE (70°)25.9 km/hMostly Cloudy
4:30 AM25 °C22 °C83 %1008.5 hPa16.1 kmEast (80°)22.2 km/hMostly Cloudy
4:38 AM25 °C22 °C83 %1008.5 hPa16.1 kmEast (80°)25.9 km/hMostly Cloudy
4:39 AM25 °C22 °C83 %1008.5 hPa16.1 kmEast (80°)25.9 km/hRainLight Rain
4:49 AM25 °C23 °C89 %1008.5 hPa16.1 kmENE (70°)22.2 km/hScattered Clouds
4:55 AM24.7 °C22.7 °C89 %1008.5 hPa16.1 kmENE (70°)22.2 km/h0 mmScattered Clouds
4:57 AM25 °C23 °C89 %1008.5 hPa16.1 kmENE (70°)22.2 km/hMostly Cloudy
5:08 AM25 °C23 °C89 %1008.5 hPa16.1 kmENE (60°)22.2 km/hMostly Cloudy
5:10 AM25 °C23 °C89 %1008.5 hPa16.1 kmENE (70°)20.4 km/hMostly Cloudy
5:12 AM25 °C23 °C89 %1008.5 hPa16.1 kmENE (70°)24.1 km/hMostly Cloudy
5:14 AM25 °C23 °C89 %1008.5 hPa16.1 kmENE (60°)22.2 km/hMostly Cloudy
5:21 AM25 °C23 °C89 %1008.5 hPa16.1 kmENE (60°)16.7 km/hRainLight Rain
5:30 AM25 °C23 °C89 %1008.8 hPa16.1 kmENE (70°)20.4 km/h31.5 km/hRainLight Rain
5:32 AM25 °C23 °C89 %1008.8 hPa16.1 kmENE (70°)22.2 km/hMostly Cloudy
5:42 AM25 °C23 °C89 %1008.8 hPa16.1 kmENE (60°)25.9 km/hMostly Cloudy
5:44 AM25 °C23 °C89 %1008.8 hPa16.1 kmENE (70°)24.1 km/hMostly Cloudy
5:53 AM25 °C23 °C89 %1008.8 hPa16.1 kmENE (70°)22.2 km/hMostly Cloudy
5:55 AM25.1 °C22.6 °C86 %1008.8 hPa16.1 kmENE (70°)29.6 km/h0 mmMostly Cloudy
6:20 AM25 °C23 °C89 %1009.5 hPa16.1 kmENE (70°)20.4 km/hMostly Cloudy
6:55 AM24.9 °C22.8 °C88 %1009.5 hPa16.1 kmEast (80°)27.8 km/h35.2 km/hMostly Cloudy
7:16 AM25 °C23 °C89 %1009.8 hPa16.1 kmENE (70°)27.8 km/hMostly Cloudy
7:55 AM25.8 °C23.2 °C85 %1010.2 hPa16.1 kmENE (70°)29.6 km/h42.6 km/hMostly Cloudy
8:44 AM26 °C23 °C83 %1010.5 hPa16.1 kmENE (70°)33.3 km/h46.3 km/hOvercast
8:48 AM27 °C23 °C79 %1010.5 hPa16.1 kmEast (80°)27.8 km/h46.3 km/hOvercast
8:53 AM27 °C23 °C79 %1010.5 hPa16.1 kmEast (80°)29.6 km/h42.6 km/hOvercast
8:55 AM26.6 °C22.8 °C80 %1010.5 hPa16.1 kmEast (80°)25.9 km/hOvercast
9:02 AM26 °C23 °C83 %1010.5 hPa9.7 kmENE (70°)31.5 km/h44.4 km/hRainLight Rain
9:20 AM25 °C23 °C89 %1010.8 hPa16.1 kmENE (70°)31.5 km/h38.9 km/hMostly Cloudy
9:25 AM26 °C23 °C83 %1010.8 hPa16.1 kmENE (70°)35.2 km/hOvercast
10:09 AM27 °C24 °C84 %1010.8 hPa16.1 kmENE (70°)29.6 km/hMostly Cloudy
10:55 AM27.2 °C23.1 °C78 %1010.5 hPa16.1 kmEast (80°)29.6 km/h40.7 km/hMostly Cloudy
10:56 AM27 °C23 °C79 %1010.5 hPa16.1 kmEast (80°)33.3 km/hMostly Cloudy
11:00 AM27 °C24 °C84 %1010.2 hPa16.1 kmENE (70°)27.8 km/hMostly Cloudy
11:31 AM28 °C23 °C74 %1009.8 hPa16.1 kmENE (70°)35.2 km/hMostly Cloudy
11:55 AM28 °C23 °C74 %1009.8 hPa16.1 kmENE (70°)35.2 km/hScattered Clouds
12:08 PM28 °C23 °C74 %1009.5 hPa16.1 kmENE (70°)33.3 km/hMostly Cloudy
12:22 PM29 °C23 °C70 %1009.5 hPa16.1 kmEast (80°)31.5 km/hScattered Clouds
12:26 PM28 °C23 °C74 %1009.5 hPa16.1 kmENE (70°)33.3 km/h42.6 km/hMostly Cloudy
12:31 PM28 °C23 °C74 %1009.5 hPa16.1 kmENE (70°)31.5 km/h42.6 km/hScattered Clouds
12:33 PM28 °C23 °C74 %1009.5 hPa16.1 kmEast (80°)31.5 km/h42.6 km/hMostly Cloudy
12:36 PM29 °C23 °C70 %1009.1 hPa16.1 kmENE (70°)27.8 km/h40.7 km/hScattered Clouds
12:37 PM29 °C23 °C70 %1009.5 hPa16.1 kmENE (70°)29.6 km/h40.7 km/hMostly Cloudy
12:39 PM29 °C23 °C70 %1009.5 hPa16.1 kmENE (70°)31.5 km/h40.7 km/hScattered Clouds
12:40 PM29 °C23 °C70 %1009.1 hPa16.1 kmEast (80°)29.6 km/h40.7 km/hMostly Cloudy
12:46 PM28 °C23 °C74 %1009.1 hPa16.1 kmENE (70°)29.6 km/h38.9 km/hScattered Clouds
12:55 PM28.8 °C23.3 °C72 %1009.1 hPa16.1 kmENE (70°)25.9 km/hPartly Cloudy
1:55 PM29.1 °C22.8 °C69 %1008.5 hPa16.1 kmENE (60°)29.6 km/hScattered Clouds
2:55 PM28.6 °C22.7 °C70 %1007.8 hPa16.1 kmEast (80°)25.9 km/hPartly Cloudy
3:11 PM29 °C23 °C70 %1007.8 hPa16.1 kmENE (70°)25.9 km/hMostly Cloudy
3:18 PM28 °C23 °C74 %1007.8 hPa16.1 kmENE (70°)25.9 km/hScattered Clouds
3:47 PM28 °C23 °C74 %1007.8 hPa16.1 kmENE (60°)25.9 km/hMostly Cloudy
3:55 PM27.5 °C22.9 °C76 %1007.8 hPa16.1 kmENE (60°)22.2 km/hMostly Cloudy
3:58 PM28 °C23 °C74 %1007.8 hPa16.1 kmENE (60°)27.8 km/hMostly Cloudy
4:02 PM27 °C23 °C79 %1007.8 hPa16.1 kmENE (60°)24.1 km/hMostly Cloudy
4:15 PM28 °C23 °C74 %1007.8 hPa16.1 kmENE (60°)25.9 km/hMostly Cloudy
4:25 PM28 °C23 °C74 %1007.8 hPa16.1 kmENE (70°)25.9 km/hMostly Cloudy
4:26 PM28 °C23 °C74 %1007.8 hPa16.1 kmENE (70°)24.1 km/hMostly Cloudy
4:27 PM28 °C23 °C74 %1007.8 hPa16.1 kmENE (60°)22.2 km/hMostly Cloudy
4:55 PM27.3 °C23 °C77 %1008.1 hPa16.1 kmNE (50°)29.6 km/hMostly Cloudy
5:29 PM26 °C23 °C83 %1008.1 hPa16.1 kmENE (60°)24.1 km/hScattered Clouds
5:55 PM26.2 °C22.8 °C81 %1008.1 hPa16.1 kmNE (50°)33.3 km/hScattered Clouds
6:41 PM26 °C23 °C83 %1008.5 hPa16.1 kmENE (60°)25.9 km/hMostly Cloudy
6:51 PM26 °C22 °C78 %1008.5 hPa16.1 kmENE (60°)27.8 km/hScattered Clouds
6:55 PM25.6 °C22.1 °C81 %1008.8 hPa16.1 kmENE (60°)27.8 km/hScattered Clouds
6:56 PM26 °C22 °C78 %1008.8 hPa16.1 kmENE (60°)27.8 km/hMostly Cloudy
7:22 PM26 °C22 °C78 %1008.8 hPa16.1 kmENE (60°)24.1 km/hScattered Clouds
7:31 PM26 °C22 °C78 %1008.8 hPa16.1 kmENE (60°)24.1 km/hMostly Cloudy
7:53 PM26 °C22 °C78 %1009.1 hPa16.1 kmENE (60°)25.9 km/hScattered Clouds
7:55 PM25.7 °C22.4 °C82 %1009.1 hPa16.1 kmENE (60°)25.9 km/hScattered Clouds
8:37 PM26 °C22 °C78 %1009.8 hPa16.1 kmENE (60°)31.5 km/h38.9 km/hMostly Cloudy
8:39 PM26 °C23 °C83 %1009.8 hPa16.1 kmENE (60°)29.6 km/h38.9 km/hScattered Clouds
8:41 PM26 °C23 °C83 %1009.8 hPa16.1 kmENE (60°)27.8 km/hMostly Cloudy
8:55 PM25.7 °C22.7 °C83 %1009.8 hPa16.1 kmNE (50°)31.5 km/hMostly Cloudy
9:03 PM26 °C22 °C78 %1010.2 hPa16.1 kmENE (60°)31.5 km/hMostly Cloudy
9:06 PM26 °C22 °C78 %1010.2 hPa16.1 kmENE (60°)31.5 km/hScattered Clouds
9:55 PM25.3 °C21.8 °C81 %1010.2 hPa16.1 kmENE (60°)24.1 km/hPartly Cloudy
10:44 PM25 °C22 °C83 %1010.2 hPa16.1 kmENE (60°)27.8 km/hMostly Cloudy
10:46 PM25 °C22 °C83 %1010.2 hPa16.1 kmENE (60°)25.9 km/hScattered Clouds
10:55 PM25.1 °C21.8 °C82 %1010.2 hPa16.1 kmENE (60°)25.9 km/hScattered Clouds
11:55 PM25.4 °C22.1 °C82 %1010.2 hPa16.1 kmENE (60°)27.8 km/hScattered Clouds
Hourly data recorded from PGUA, located 0 kilometers away from Umatac, Guam







STORIES FROM OUR PARTNERS